Time,TemperatureF,DewpointF,PressureIn,WindDirection,WindDirectionDegrees,WindSpeedMPH,WindSpeedGustMPH,Humidity,HourlyPrecipIn,Conditions,Clouds,dailyrainin,SoftwareType,DateUTC
2013-02-17 00:01:00,45.0,43.0,30.33,East,94,0.0,0.0,94,0.00,,,0.05,,2013-02-17 08:01:00,
2013-02-17 00:11:00,45.0,43.0,30.33,East,94,0.0,0.0,94,0.00,,,0.05,,2013-02-17 08:11:00,
2013-02-17 00:21:00,44.0,42.0,30.33,East,94,0.0,0.0,94,0.00,,,0.05,,2013-02-17 08:21:00,
2013-02-17 00:31:00,44.0,42.0,30.33,East,94,0.0,0.0,94,0.00,,,0.05,,2013-02-17 08:31:00,
2013-02-17 00:41:00,44.0,42.0,30.33,East,94,0.0,0.0,94,0.00,,,0.05,,2013-02-17 08:41:00,
2013-02-17 00:52:00,44.0,42.0,30.33,East,94,0.0,0.0,94,0.00,,,0.05,,2013-02-17 08:52:00,
2013-02-17 01:01:00,43.0,41.0,30.33,East,94,0.0,0.0,94,0.00,,,0.05,,2013-02-17 09:01:00,
2013-02-17 01:11:00,43.0,41.0,30.33,East,94,0.0,0.0,94,0.00,,,0.05,,2013-02-17 09:11:00,
2013-02-17 01:21:00,43.0,42.0,30.33,East,94,0.0,0.0,95,0.00,,,0.05,,2013-02-17 09:21:00,
2013-02-17 01:31:00,43.0,42.0,30.33,East,94,0.0,0.0,95,0.00,,,0.05,,2013-02-17 09:31:00,
2013-02-17 01:41:00,43.0,42.0,30.33,East,94,0.0,0.0,95,0.00,,,0.05,,2013-02-17 09:41:00,
2013-02-17 01:51:00,43.0,42.0,30.33,East,94,0.0,0.0,95,0.00,,,0.05,,2013-02-17 09:51:00,
2013-02-17 02:01:00,42.0,41.0,30.33,East,94,0.0,0.0,95,0.00,,,0.05,,2013-02-17 10:01:00,
2013-02-17 02:11:00,42.0,41.0,30.33,East,94,0.0,0.0,95,0.00,,,0.05,,2013-02-17 10:11:00,
2013-02-17 02:21:00,42.0,41.0,30.33,East,94,0.0,0.0,95,0.00,,,0.05,,2013-02-17 10:21:00,
2013-02-17 02:31:00,42.0,41.0,30.33,East,94,0.0,0.0,95,0.00,,,0.05,,2013-02-17 10:31:00,
2013-02-17 02:41:00,42.0,41.0,30.33,East,94,0.0,0.0,95,0.00,,,0.05,,2013-02-17 10:41:00,
2013-02-17 02:51:00,42.0,41.0,30.33,East,94,0.0,0.0,96,0.00,,,0.05,,2013-02-17 10:51:00,
2013-02-17 03:01:00,42.0,41.0,30.33,East,94,0.0,0.0,96,0.00,,,0.05,,2013-02-17 11:01:00,
2013-02-17 03:11:00,42.0,41.0,30.33,East,94,0.0,0.0,96,0.00,,,0.05,,2013-02-17 11:11:00,
2013-02-17 03:21:00,42.0,41.0,30.33,East,94,0.0,0.0,96,0.02,,,0.07,,2013-02-17 11:21:00,
2013-02-17 03:32:00,42.0,41.0,30.32,East,94,0.0,0.0,95,0.02,,,0.07,,2013-02-17 11:32:00,
2013-02-17 03:41:00,42.0,41.0,30.32,East,94,0.0,0.0,95,0.02,,,0.07,,2013-02-17 11:41:00,
2013-02-17 03:52:00,41.0,40.0,30.33,East,94,0.0,0.0,95,0.02,,,0.07,,2013-02-17 11:52:00,
2013-02-17 04:02:00,40.0,39.0,30.32,East,94,0.0,0.0,95,0.00,,,0.07,,2013-02-17 12:02:00,
2013-02-17 04:11:00,40.0,39.0,30.32,East,94,0.0,0.0,95,0.00,,,0.07,,2013-02-17 12:11:00,
2013-02-17 04:22:00,40.0,39.0,30.32,East,94,0.0,0.0,96,0.00,,,0.07,,2013-02-17 12:22:00,
2013-02-17 04:31:00,40.0,39.0,30.32,East,94,0.0,0.0,96,0.00,,,0.07,,2013-02-17 12:31:00,
2013-02-17 04:42:00,40.0,39.0,30.32,East,94,0.0,0.0,96,0.00,,,0.07,,2013-02-17 12:42:00,
2013-02-17 04:52:00,40.0,39.0,30.32,East,94,0.0,0.0,96,0.00,,,0.07,,2013-02-17 12:52:00,
2013-02-17 05:02:00,40.0,39.0,30.32,East,94,0.0,0.0,96,0.00,,,0.07,,2013-02-17 13:02:00,
2013-02-17 05:11:00,40.0,39.0,30.32,East,94,0.0,0.0,96,0.00,,,0.07,,2013-02-17 13:11:00,
2013-02-17 05:21:00,40.0,39.0,30.32,East,94,0.0,0.0,96,0.01,,,0.08,,2013-02-17 13:21:00,
2013-02-17 05:32:00,41.0,40.0,30.31,East,94,0.0,1.0,96,0.02,,,0.09,,2013-02-17 13:32:00,
2013-02-17 05:41:00,41.0,40.0,30.31,East,94,0.0,1.0,96,0.02,,,0.09,,2013-02-17 13:41:00,
2013-02-17 05:51:00,41.0,40.0,30.31,East,94,0.0,1.0,96,0.02,,,0.09,,2013-02-17 13:51:00,
2013-02-17 06:01:00,41.0,40.0,30.31,East,94,0.0,0.0,96,0.02,,,0.09,,2013-02-17 14:01:00,
2013-02-17 06:11:00,41.0,40.0,30.31,East,94,0.0,0.0,96,0.02,,,0.09,,2013-02-17 14:11:00,
2013-02-17 06:21:00,40.0,39.0,30.31,East,94,0.0,0.0,96,0.01,,,0.09,,2013-02-17 14:21:00,
2013-02-17 06:32:00,39.0,38.0,30.31,East,94,0.0,0.0,96,0.00,,,0.09,,2013-02-17 14:32:00,
2013-02-17 06:42:00,39.0,38.0,30.31,East,94,0.0,0.0,96,0.00,,,0.09,,2013-02-17 14:42:00,
2013-02-17 06:52:00,39.0,38.0,30.31,East,94,0.0,0.0,96,0.00,,,0.09,,2013-02-17 14:52:00,
2013-02-17 07:01:00,39.0,38.0,30.31,East,94,0.0,0.0,96,0.00,,,0.09,,2013-02-17 15:01:00,
2013-02-17 07:11:00,39.0,38.0,30.31,East,94,0.0,0.0,96,0.00,,,0.09,,2013-02-17 15:11:00,
2013-02-17 07:21:00,39.0,38.0,30.31,East,94,0.0,0.0,96,0.00,,,0.09,,2013-02-17 15:21:00,
2013-02-17 07:31:00,40.0,39.0,30.30,East,94,0.0,0.0,96,0.00,,,0.08,,2013-02-17 15:31:00,
2013-02-17 07:41:00,40.0,39.0,30.30,East,94,0.0,0.0,96,0.00,,,0.08,,2013-02-17 15:41:00,
2013-02-17 07:52:00,40.0,39.0,30.30,East,94,0.0,0.0,96,0.00,,,0.08,,2013-02-17 15:52:00,
2013-02-17 08:01:00,40.0,39.0,30.30,East,94,0.0,0.0,96,0.00,,,0.08,,2013-02-17 16:01:00,
2013-02-17 08:11:00,40.0,39.0,30.30,East,94,0.0,0.0,96,0.00,,,0.08,,2013-02-17 16:11:00,
2013-02-17 08:21:00,40.0,39.0,30.30,East,94,0.0,0.0,96,0.00,,,0.08,,2013-02-17 16:21:00,
2013-02-17 08:31:00,40.0,39.0,30.31,East,94,0.0,0.0,97,0.00,,,0.07,,2013-02-17 16:31:00,
2013-02-17 08:41:00,40.0,39.0,30.31,East,94,0.0,0.0,97,0.00,,,0.07,,2013-02-17 16:41:00,
2013-02-17 08:51:00,40.0,39.0,30.31,East,94,0.0,0.0,97,0.00,,,0.07,,2013-02-17 16:51:00,
2013-02-17 09:02:00,43.0,42.0,30.31,East,94,0.0,0.0,97,0.00,,,0.06,,2013-02-17 17:02:00,
2013-02-17 09:11:00,43.0,42.0,30.31,East,94,0.0,0.0,97,0.00,,,0.06,,2013-02-17 17:11:00,
2013-02-17 09:21:00,44.0,43.0,30.31,East,94,0.0,0.0,97,0.00,,,0.06,,2013-02-17 17:21:00,
2013-02-17 09:31:00,47.0,46.0,30.30,East,94,0.0,0.0,96,0.00,,,0.06,,2013-02-17 17:31:00,
2013-02-17 09:41:00,47.0,46.0,30.30,East,94,0.0,0.0,96,0.00,,,0.06,,2013-02-17 17:41:00,
2013-02-17 09:52:00,48.0,46.0,30.30,East,94,0.0,0.0,93,0.00,,,0.06,,2013-02-17 17:52:00,
2013-02-17 10:01:00,48.0,45.0,30.30,East,94,0.0,1.0,90,0.00,,,0.06,,2013-02-17 18:01:00,
2013-02-17 10:11:00,48.0,45.0,30.30,East,94,0.0,1.0,90,0.00,,,0.06,,2013-02-17 18:11:00,
2013-02-17 10:21:00,49.0,45.0,30.29,East,94,0.0,1.0,86,0.00,,,0.06,,2013-02-17 18:21:00,
2013-02-17 10:33:00,50.0,46.0,30.29,East,94,0.0,2.0,85,0.00,,,0.06,,2013-02-17 18:33:00,
2013-02-17 10:42:00,50.0,46.0,30.29,East,94,0.0,2.0,85,0.00,,,0.06,,2013-02-17 18:42:00,
2013-02-17 10:52:00,51.0,45.0,30.29,ENE,74,0.0,2.0,81,0.00,,,0.06,,2013-02-17 18:52:00,
2013-02-17 11:01:00,50.0,43.0,30.29,East,89,0.0,1.0,78,0.00,,,0.05,,2013-02-17 19:01:00,
2013-02-17 11:11:00,50.0,43.0,30.29,East,89,0.0,1.0,78,0.00,,,0.05,,2013-02-17 19:11:00,
2013-02-17 11:21:00,50.0,43.0,30.28,East,98,0.0,1.0,77,0.00,,,0.05,,2013-02-17 19:21:00,
2013-02-17 11:32:00,50.0,43.0,30.28,East,98,0.0,1.0,76,0.00,,,0.05,,2013-02-17 19:32:00,
2013-02-17 11:41:00,50.0,43.0,30.28,East,98,0.0,1.0,76,0.00,,,0.05,,2013-02-17 19:41:00,
2013-02-17 11:51:00,51.0,44.0,30.27,SE,129,0.0,5.0,77,0.00,,,0.05,,2013-02-17 19:51:00,
2013-02-17 12:01:00,51.0,44.0,30.27,ESE,117,0.0,3.0,76,0.00,,,0.05,,2013-02-17 20:01:00,
2013-02-17 12:11:00,51.0,44.0,30.27,ESE,117,0.0,3.0,76,0.00,,,0.05,,2013-02-17 20:11:00,
2013-02-17 12:21:00,50.0,43.0,30.26,NNW,333,1.0,4.0,76,0.00,,,0.05,,2013-02-17 20:21:00,
2013-02-17 12:31:00,50.0,43.0,30.26,East,81,0.0,5.0,77,0.00,,,0.05,,2013-02-17 20:31:00,
2013-02-17 12:42:00,50.0,43.0,30.26,East,81,0.0,5.0,77,0.00,,,0.05,,2013-02-17 20:42:00,
2013-02-17 12:52:00,49.0,42.0,30.26,NNE,16,0.0,4.0,77,0.00,,,0.05,,2013-02-17 20:52:00,
2013-02-17 13:01:00,50.0,42.0,30.25,SE,143,0.0,5.0,75,0.01,,,0.06,,2013-02-17 21:01:00,
2013-02-17 13:11:00,50.0,42.0,30.25,SE,143,0.0,5.0,75,0.01,,,0.06,,2013-02-17 21:11:00,
2013-02-17 13:21:00,52.0,43.0,30.24,North,351,2.0,7.0,72,0.01,,,0.06,,2013-02-17 21:21:00,
2013-02-17 13:31:00,51.0,43.0,30.24,North,352,0.0,6.0,74,0.01,,,0.06,,2013-02-17 21:31:00,
2013-02-17 13:41:00,51.0,43.0,30.24,North,352,0.0,6.0,74,0.01,,,0.06,,2013-02-17 21:41:00,
2013-02-17 13:52:00,52.0,43.0,30.23,ENE,62,1.0,5.0,71,0.01,,,0.06,,2013-02-17 21:52:00,
2013-02-17 14:01:00,52.0,42.0,30.23,East,81,1.0,5.0,68,0.00,,,0.06,,2013-02-17 22:01:00,
2013-02-17 14:11:00,52.0,42.0,30.23,East,81,1.0,5.0,68,0.00,,,0.06,,2013-02-17 22:11:00,
2013-02-17 14:21:00,52.0,41.0,30.22,SE,124,1.0,8.0,65,0.00,,,0.06,,2013-02-17 22:21:00,
2013-02-17 14:32:00,51.0,41.0,30.22,ENE,58,1.0,13.0,68,0.00,,,0.06,,2013-02-17 22:32:00,
2013-02-17 14:41:00,51.0,41.0,30.22,ENE,58,1.0,13.0,68,0.00,,,0.06,,2013-02-17 22:41:00,
2013-02-17 14:52:00,53.0,42.0,30.22,East,99,0.0,5.0,67,0.00,,,0.06,,2013-02-17 22:52:00,
2013-02-17 15:01:00,52.0,41.0,30.21,WNW,291,1.0,7.0,66,0.00,,,0.06,,2013-02-17 23:01:00,
2013-02-17 15:11:00,52.0,41.0,30.21,WNW,291,1.0,7.0,66,0.00,,,0.06,,2013-02-17 23:11:00,
2013-02-17 15:21:00,52.0,41.0,30.21,North,354,1.0,6.0,66,0.00,,,0.06,,2013-02-17 23:21:00,
2013-02-17 15:31:00,51.0,42.0,30.20,ESE,104,1.0,5.0,70,0.00,,,0.06,,2013-02-17 23:31:00,
2013-02-17 15:41:00,51.0,42.0,30.20,ESE,104,1.0,5.0,70,0.00,,,0.06,,2013-02-17 23:41:00,
2013-02-17 15:52:00,50.0,40.0,30.20,East,87,0.0,4.0,69,0.00,,,0.06,,2013-02-17 23:52:00,
2013-02-17 16:01:00,51.0,41.0,30.20,East,83,1.0,5.0,69,0.00,,,0.06,,2013-02-18 00:01:00,
2013-02-17 16:11:00,51.0,41.0,30.20,East,83,1.0,5.0,69,0.00,,,0.06,,2013-02-18 00:11:00,
2013-02-17 16:22:00,51.0,41.0,30.20,East,83,1.0,5.0,69,0.00,,,0.06,,2013-02-18 00:22:00,
2013-02-17 16:31:00,51.0,41.0,30.20,East,83,1.0,5.0,69,0.00,,,0.06,,2013-02-18 00:31:00,
2013-02-17 16:41:00,51.0,41.0,30.20,East,83,1.0,5.0,69,0.00,,,0.06,,2013-02-18 00:41:00,
2013-02-17 16:52:00,48.0,40.0,30.19,East,101,0.0,3.0,73,0.00,,,0.06,,2013-02-18 00:52:00,
2013-02-17 17:01:00,48.0,40.0,30.18,NE,50,1.0,6.0,75,0.00,,,0.06,,2013-02-18 01:01:00,
2013-02-17 17:11:00,48.0,40.0,30.18,NE,50,1.0,6.0,75,0.00,,,0.06,,2013-02-18 01:11:00,
2013-02-17 17:21:00,48.0,40.0,30.18,East,84,0.0,6.0,75,0.00,,,0.06,,2013-02-18 01:21:00,
2013-02-17 17:31:00,47.0,40.0,30.17,East,80,0.0,2.0,76,0.00,,,0.06,,2013-02-18 01:31:00,
2013-02-17 17:41:00,47.0,40.0,30.17,East,80,0.0,2.0,76,0.00,,,0.06,,2013-02-18 01:41:00,
2013-02-17 17:51:00,46.0,39.0,30.16,North,3,0.0,2.0,77,0.00,,,0.06,,2013-02-18 01:51:00,
2013-02-17 18:01:00,45.0,39.0,30.16,NE,50,0.0,1.0,79,0.00,,,0.06,,2013-02-18 02:01:00,
2013-02-17 18:11:00,45.0,39.0,30.16,NE,50,0.0,1.0,79,0.00,,,0.06,,2013-02-18 02:11:00,
2013-02-17 18:21:00,45.0,39.0,30.16,NE,50,0.0,1.0,79,0.00,,,0.06,,2013-02-18 02:21:00,
2013-02-17 18:31:00,44.0,39.0,30.16,ENE,70,0.0,3.0,84,0.00,,,0.06,,2013-02-18 02:31:00,
2013-02-17 18:41:00,44.0,39.0,30.16,ENE,70,0.0,3.0,84,0.00,,,0.06,,2013-02-18 02:41:00,
2013-02-17 18:52:00,44.0,39.0,30.16,ENE,70,0.0,3.0,84,0.00,,,0.06,,2013-02-18 02:52:00,
2013-02-17 19:01:00,43.0,39.0,30.15,East,80,0.0,0.0,85,0.00,,,0.06,,2013-02-18 03:01:00,
2013-02-17 19:11:00,43.0,39.0,30.15,East,80,0.0,0.0,85,0.00,,,0.06,,2013-02-18 03:11:00,
2013-02-17 19:21:00,42.0,38.0,30.15,East,80,0.0,1.0,86,0.00,,,0.06,,2013-02-18 03:21:00,
2013-02-17 19:31:00,42.0,38.0,30.16,East,80,0.0,0.0,87,0.00,,,0.06,,2013-02-18 03:31:00,
2013-02-17 19:41:00,42.0,38.0,30.16,East,80,0.0,0.0,87,0.00,,,0.06,,2013-02-18 03:41:00,
2013-02-17 19:51:00,41.0,38.0,30.16,East,80,0.0,0.0,88,0.00,,,0.06,,2013-02-18 03:51:00,
2013-02-17 20:01:00,40.0,37.0,30.15,East,80,0.0,0.0,90,0.00,,,0.06,,2013-02-18 04:01:00,
2013-02-17 20:11:00,40.0,37.0,30.15,East,80,0.0,0.0,90,0.00,,,0.06,,2013-02-18 04:11:00,
2013-02-17 20:21:00,40.0,37.0,30.15,East,80,0.0,0.0,90,0.00,,,0.06,,2013-02-18 04:21:00,
2013-02-17 20:32:00,39.0,37.0,30.15,East,80,0.0,0.0,91,0.00,,,0.06,,2013-02-18 04:32:00,
2013-02-17 20:41:00,39.0,37.0,30.15,East,80,0.0,0.0,91,0.00,,,0.06,,2013-02-18 04:41:00,
2013-02-17 20:51:00,39.0,37.0,30.15,East,80,0.0,0.0,92,0.00,,,0.06,,2013-02-18 04:51:00,
2013-02-17 21:01:00,38.0,36.0,30.14,East,80,0.0,0.0,92,0.00,,,0.06,,2013-02-18 05:01:00,
2013-02-17 21:11:00,38.0,36.0,30.14,East,80,0.0,0.0,92,0.00,,,0.06,,2013-02-18 05:11:00,
2013-02-17 21:21:00,38.0,36.0,30.14,East,80,0.0,0.0,92,0.00,,,0.06,,2013-02-18 05:21:00,
2013-02-17 21:31:00,37.0,35.0,30.14,East,80,0.0,0.0,92,0.00,,,0.06,,2013-02-18 05:31:00,
2013-02-17 21:41:00,37.0,35.0,30.14,East,80,0.0,0.0,92,0.00,,,0.06,,2013-02-18 05:41:00,
2013-02-17 21:51:00,36.0,34.0,30.14,East,80,0.0,0.0,92,0.00,,,0.06,,2013-02-18 05:51:00,
2013-02-17 22:02:00,36.0,34.0,30.14,East,80,0.0,0.0,93,0.00,,,0.06,,2013-02-18 06:02:00,
2013-02-17 22:11:00,36.0,34.0,30.14,East,80,0.0,0.0,93,0.00,,,0.06,,2013-02-18 06:11:00,
2013-02-17 22:21:00,36.0,34.0,30.14,East,80,0.0,0.0,93,0.00,,,0.06,,2013-02-18 06:21:00,
2013-02-17 22:31:00,35.0,33.0,30.14,East,80,0.0,0.0,93,0.00,,,0.06,,2013-02-18 06:31:00,
2013-02-17 22:41:00,35.0,33.0,30.13,East,80,0.0,0.0,94,0.00,,,0.06,,2013-02-18 06:41:00,
2013-02-17 22:52:00,35.0,33.0,30.13,East,80,0.0,0.0,94,0.00,,,0.06,,2013-02-18 06:52:00,
2013-02-17 23:01:00,34.0,32.0,30.13,East,80,0.0,0.0,94,0.00,,,0.05,,2013-02-18 07:01:00,
2013-02-17 23:11:00,34.0,32.0,30.13,East,80,0.0,0.0,94,0.00,,,0.05,,2013-02-18 07:11:00,
2013-02-17 23:21:00,34.0,32.0,30.13,East,80,0.0,0.0,94,0.00,,,0.05,,2013-02-18 07:21:00,
2013-02-17 23:31:00,34.0,32.0,30.12,East,80,0.0,0.0,94,0.00,,,0.05,,2013-02-18 07:31:00,
2013-02-17 23:42:00,34.0,32.0,30.12,East,80,0.0,0.0,94,0.00,,,0.05,,2013-02-18 07:42:00,
2013-02-17 23:52:00,34.0,32.0,30.11,East,80,0.0,0.0,94,0.00,,,0.05,,2013-02-18 07:52:00,